Location: Unspecified
(52.4292°N, 19.3359°E)
Time: 00:52:24
(UTC+02:00)

Altair - Pass Details

Date: 24 May 2024
Orbit: 1502 x 1682 km, 47.2° (Epoch: 20 June)

Event Time Altitude Azimuth Distance (km) Brightness Sun altitude
Rises 09:21:53 0° 203° (SSW) 4,788 10.1 40.8°
Reaches altitude 10° 09:25:27 10° 192° (SSW) 3,832 9.8 41.3°
Maximum altitude 09:33:25 29° 138° (SE) 2,671 10.3 42.4°
Drops below altitude 10° 09:41:34 10° 83° (E) 3,935 10.5 43.5°
Sets 09:45:17 0° 73° (ENE) 4,936 10.6 44.0°
